GFSWCAN_925_temp_165.txt.gz
Temp
5 6 6 7 7 7 8 8 8 9 9 9 9 9 9 9 9 9 8 8 8 6 6 7 8 7 6 6 8 7 8 6 5 8 7 7 6 7 7 7 6 7 7 8 9 9 8 9 9 10 10 9 9 9
5 5 5 5 5 6 6 7 8 9 9 9 9 9 9 9 9 8 8 8 8 7 7 8 9 9 9 9 6 5 7 6 6 6 5 5 6 4 5 7 5 7 7 7 8 9 9 8 9 9 7 8 9 9
5 5 5 5 5 5 6 6 7 8 9 9 9 9 8 8 8 8 8 8 7 6 6 6 6 8 8 8 9 8 5 6 5 5 4 6 7 6 6 4 6 6 5 7 7 9 8 8 7 7 8 7 9 9
4 4 4 4 5 5 5 6 7 8 7 8 8 8 8 8 7 7 7 7 7 7 7 7 7 7 7 8 7 8 7 6 6 6 7 7 7 7 5 6 5 6 6 6 5 6 7 9 9 9 8 8 8 8
4 4 4 4 4 5 5 5 6 7 7 7 7 8 8 7 7 6 6 6 7 7 6 6 7 6 6 6 6 6 6 5 6 6 7 7 7 7 7 6 6 5 7 7 9 9 9 7 6 7 8 7 8 6
3 3 4 4 3 4 4 5 5 5 6 6 7 7 7 7 6 6 5 5 6 6 6 6 6 4 4 4 4 4 4 5 5 6 6 6 7 7 6 6 6 6 6 7 7 6 6 7 5 3 5 3 4 4
3 3 3 4 4 4 4 4 4 5 5 5 4 4 4 5 5 5 5 5 5 5 5 5 4 3 3 3 2 2 3 4 5 5 4 5 5 6 5 5 6 5 4 4 3 5 5 2 1 2 2 2 3 3
3 3 3 3 3 4 3 3 3 3 4 4 4 4 3 3 4 4 4 4 4 5 4 4 1 2 2 2 3 1 3 4 4 4 4 4 3 3 3 4 2 2 2 3 2 2 2 2 2 2 2 2 2 2
3 3 3 3 3 3 3 3 3 3 3 3 3 4 4 4 3 3 3 4 4 4 2 2 1 1 2 1 1 1 2 2 1 3 3 3 3 4 4 1 1 1 1 2 1 2 2 3 3 2 2 2 2 2
2 2 3 3 3 2 2 2 2 2 2 2 3 3 1 2 2 2 2 1 -0 1 2 2 0 0 1 -0 0 0 -1 1 -2 2 2 3 3 3 -0 -1 -1 -0 0 0 2 2 3 3 2 2 1 1 1 0
2 2 2 2 3 2 2 2 2 2 2 2 1 0 1 2 2 0 -3 -3 -3 -3 -1 2 0 0 -0 1 1 0 -2 -2 -3 0 3 2 -0 1 -1 -1 -1 -0 1 2 2 2 1 1 1 0 -0 1 1 1
1 1 2 2 2 2 2 2 2 2 2 2 2 1 2 1 -1 -3 -6 -1 -2 -1 -1 -2 -0 1 0 -0 1 -1 -1 -2 -1 0 0 -1 1 1 -0 -0 0 0 0 0 1 0 1 1 1 1 -0 0 1 1
1 1 1 2 2 2 2 2 2 2 2 2 1 -3 -3 -4 -1 -4 -4 -3 -3 -1 -2 1 0 0 0 1 1 1 1 -0 0 -1 1 0 1 1 -1 -1 -1 0 0 -0 0 1 1 1 2 1 0 1 1 0
1 1 1 1 2 2 2 2 1 2 2 -2 -3 -1 -3 -3 -3 -2 -2 -2 -2 -2 1 1 1 1 1 1 1 1 -0 -2 -1 1 -2 -3 -2 -1 -1 -1 -1 -1 -1 -1 -1 -0 -0 0 1 0 0 1 -0 -1
0 1 1 1 1 1 1 1 1 1 1 -3 -4 -3 -6 -3 -5 -5 -6 -5 -4 -3 0 -0 -1 0 1 -0 1 -0 -2 0 1 -2 -2 -5 -2 -2 -3 -1 -2 -2 -2 -2 -1 -1 -1 -1 -1 -1 -0 0 -0 -1
0 0 1 1 1 1 1 1 -0 -1 -5 -5 -9 -5 -6 -6 -7 -7 -5 -4 -3 -2 -2 -2 -4 -2 -4 -1 -2 -1 -3 -4 -3 -4 -4 -6 -4 -3 -2 -1 -1 -1 -1 -1 -1 -1 -1 -1 -1 -1 -1 -1 -1 -2
0 1 0 0 1 1 0 -0 -1 -2 -2 -8 -7 -6 -5 -7 -6 -6 -4 -3 -2 -1 -1 -6 -5 -4 -6 -4 -4 -4 -6 -3 -4 -4 -5 -2 -0 -0 -1 -2 -1 -1 -1 -2 -2 -1 -2 -1 -2 -2 -3 -2 -2 -2
0 1 0 0 0 0 -1 -1 -2 -2 -4 -8 -6 -6 -4 -3 -4 -3 -5 -5 -2 -0 -3 -3 -8 -9 -9 -8 -6 -5 -5 -5 -4 -2 -1 -1 -2 -2 -1 -2 -1 -1 -1 -1 -2 -2 -2 -3 -4 -3 -2 -3 -3 -3
0 0 0 -0 -0 -0 -1 -2 -2 -3 -7 -8 -6 -5 -4 -3 -3 -3 -4 -4 -3 -3 -4 -5 -8 -7 -4 -4 -2 -0 -6 -4 -1 1 -1 -1 -1 -1 -1 -1 -1 -2 -2 -2 -2 -2 -2 -2 -2 -2 -2 -2 -2 -2
0 0 0 -1 -0 -0 -3 -3 -4 -6 -6 -6 -7 -5 -5 -5 -5 -5 -4 -4 -3 -6 -5 -6 -5 -1 -3 -1 -3 -2 -2 -2 -2 -0 0 1 1 -0 -2 -2 -1 -0 -1 -1 -2 -2 -2 -3 -3 -3 -3 -3 -3 -3
0 0 -0 -1 -1 -1 -4 -3 -3 -6 -10 -8 -9 -6 -7 -10 -9 -9 -8 -3 -4 -2 -5 -3 0 1 1 1 1 0 -0 -2 -3 -2 -0 -1 0 0 -0 -1 -1 -2 -2 -3 -3 -3 -1 -2 -1 -1 -2 -2 -2 -2
0 -0 -1 -1 -2 -3 -4 -4 -4 -6 -9 -7 -4 -5 -6 -10 -11 -11 -7 -9 -8 -5 -4 -2 -0 0 -0 -1 -0 1 0 0 -0 -1 -0 -0 -2 -1 -1 -1 -2 -3 -3 -2 -2 -2 -2 -2 -2 -2 -3 -3 -3 -3
-1 -1 -1 -2 -2 -3 -3 -5 -4 -4 -5 -6 -5 -5 -5 -6 -11 -9 -7 -8 -7 -5 -2 -2 0 1 -1 0 0 -0 -0 -2 -2 -2 -2 -2 -2 -2 -2 -2 -2 -3 -3 -3 -3 -3 -3 -3 -3 -2 -2 -3 -3 -3
0 -2 -2 -1 -2 -3 -4 -3 -5 -4 -6 -9 -5 -7 -9 -12 -11 -8 -5 -8 -6 -5 -4 -3 -3 -5 -6 -5 -7 -4 -2 -1 -3 -3 -3 -4 -4 -3 -3 -3 -3 -3 -3 -3 -3 -3 -3 -3 -3 -3 -3 -3 -4 -4
-2 -2 -3 -4 -9 -7 -9 -7 -8 -7 -7 -9 -10 -10 -11 -11 -6 -6 -7 -8 -8 -7 -4 -5 -6 -6 -5 -6 -5 -3 -1 -2 -4 -4 -2 -2 -4 -4 -4 -3 -3 -3 -3 -3 -4 -4 -4 -4 -4 -4 -4 -4 -5 -5
-2 -4 -5 -8 -8 -7 -7 -6 -8 -7 -9 -10 -9 -14 -16 -11 -7 -7 -9 -9 -10 -9 -8 -7 -6 -7 -6 -5 -5 -4 -2 -2 -3 -6 -4 -4 -4 -5 -5 -5 -5 -4 -4 -4 -5 -4 -4 -4 -5 -5 -5 -5 -4 -4
-7 -7 -9 -8 -8 -7 -8 -8 -8 -9 -10 -8 -12 -12 -9 -9 -8 -7 -9 -10 -8 -1 1 1 -1 -4 -4 -3 -3 -4 -4 -4 -5 -6 -5 -6 -6 -6 -6 -6 -5 -5 -5 -5 -6 -7 -7 -6 -6 -6 -6 -6 -6 -6
-8 -9 -7 -9 -9 -10 -8 -9 -11 -8 -8 -9 -9 -10 -9 -8 -5 -7 -8 -1 0 1 0 -1 -2 -3 -5 -5 -5 -5 -5 -5 -5 -5 -5 -5 -5 -5 -6 -6 -7 -7 -7 -8 -7 -7 -7 -7 -7 -7 -7 -6 -6 -6
-8 -9 -7 -9 -9 -9 -9 -6 -6 -8 -7 -9 -8 -8 -9 -8 -10 -10 -3 -2 -2 -3 -4 -6 -6 -5 -5 -4 -5 -7 -7 -7 -10 -10 -8 -7 -7 -6 -7 -8 -8 -8 -8 -8 -8 -7 -7 -7 -6 -6 -6 -7 -7 -7
-10 -12 -9 -9 -9 -8 -8 -9 -11 -13 -11 -9 -9 -8 -9 -9 -7 -6 -5 -5 -6 -8 -8 -8 -8 -8 -10 -11 -11 -10 -8 -7 -8 -9 -8 -8 -8 -9 -9 -9 -9 -9 -8 -8 -8 -8 -8 -7 -7 -7 -7 -7 -7 -8
-13 -13 -11 -13 -12 -13 -14 -16 -15 -12 -13 -14 -15 -10 -5 -11 -9 -8 -8 -8 -8 -8 -8 -10 -9 -9 -10 -11 -12 -12 -11 -9 -9 -10 -10 -9 -10 -10 -9 -8 -8 -8 -8 -8 -7 -7 -8 -8 -8 -8 -8 -8 -8 -8
-8 -7 -7 -6 -9 -14 -17 -17 -18 -16 -19 -17 -14 -16 -10 -8 -8 -13 -9 -8 -8 -9 -9 -10 -11 -11 -10 -10 -9 -10 -10 -10 -10 -11 -10 -9 -9 -8 -8 -7 -7 -7 -7 -7 -7 -8 -8 -8 -8 -8 -8 -8 -8 -8
-7 -7 -6 -7 -11 -12 -15 -14 -15 -14 -14 -14 -12 -12 -12 -10 -8 -10 -9 -9 -10 -10 -11 -11 -10 -8 -9 -9 -9 -9 -10 -11 -10 -10 -10 -9 -8 -8 -7 -7 -7 -7 -7 -8 -8 -8 -8 -8 -8 -8 -8 -7 -7 -7

GFSWCAN_925_temp_171.txt.gz
Temp
9 8 8 8 8 8 8 8 8 9 9 10 9 9 9 9 9 9 9 9 9 12 12 10 12 12 12 13 15 12 12 11 12 13 14 15 14 15 13 15 14 14 14 13 14 14 13 13 13 14 13 13 13 13
8 8 7 7 7 7 7 7 8 8 9 9 9 9 9 9 9 8 9 9 9 10 11 8 10 9 11 12 13 12 12 13 14 13 13 13 13 13 14 14 12 13 15 15 15 16 14 14 14 13 13 12 13 12
5 5 5 5 6 6 6 6 7 8 9 9 9 9 9 9 8 8 8 9 8 10 11 9 10 9 9 9 10 12 12 12 11 11 13 13 12 14 13 14 14 15 15 12 13 15 15 15 14 13 11 11 11 11
4 4 4 5 5 5 5 5 6 7 8 8 8 8 8 8 8 8 8 8 8 8 9 11 8 8 8 8 8 8 9 9 10 11 11 10 9 12 12 12 12 14 11 12 13 14 15 15 14 12 10 10 10 10
2 3 4 4 4 5 5 5 5 6 7 8 7 7 8 7 8 7 7 8 8 8 8 9 8 5 6 6 6 6 7 9 9 8 7 8 7 8 8 9 10 12 12 12 12 14 12 12 11 10 9 9 8 7
2 3 4 4 4 5 5 4 5 5 6 7 7 7 7 7 7 7 6 6 7 7 7 7 6 6 4 5 5 5 6 8 8 8 8 8 10 9 9 9 12 12 12 12 11 10 9 10 9 7 7 7 6 6
4 4 4 4 4 4 4 4 4 5 5 5 6 7 7 7 7 6 6 5 6 6 5 6 6 3 3 4 4 5 5 6 6 6 6 6 6 7 6 8 11 11 10 9 9 8 9 8 8 7 6 6 6 6
3 3 3 4 4 3 3 3 4 4 4 4 4 4 5 5 4 4 4 4 5 5 5 5 6 6 4 6 6 5 6 5 5 5 5 5 5 5 6 8 10 8 8 8 7 7 7 7 6 6 6 6 6 6
3 3 3 3 3 4 3 3 3 3 4 4 4 4 4 4 2 2 3 3 4 4 5 4 6 7 4 5 5 5 6 5 6 5 5 5 7 6 8 9 8 8 7 8 6 6 6 6 6 6 6 6 6 6
3 3 3 3 3 3 3 3 3 3 3 4 4 4 4 2 2 3 3 4 3 2 2 4 6 5 6 5 5 5 5 5 4 6 6 4 6 8 9 9 9 8 7 6 5 5 5 5 6 6 6 6 6 6
2 2 3 3 3 3 3 2 2 2 3 3 3 2 1 2 2 3 2 3 3 3 4 3 4 5 4 5 5 5 4 4 3 5 4 5 6 7 9 8 8 7 7 6 6 7 7 6 6 6 6 6 6 5
1 2 2 2 2 3 2 2 2 2 2 2 2 1 2 3 2 3 2 2 2 4 3 3 4 4 3 4 5 3 4 3 3 4 3 4 7 8 7 6 6 6 6 6 5 5 5 5 4 4 4 4 4 4
1 1 1 2 2 2 2 2 2 3 2 2 2 1 2 0 1 2 1 2 2 2 2 2 2 3 3 2 3 3 2 3 3 3 4 6 7 6 5 6 5 5 4 4 4 4 4 4 4 4 4 4 4 3
1 1 1 1 1 2 2 2 2 2 2 2 2 1 2 1 1 2 3 3 3 2 2 3 3 3 3 2 3 2 3 2 2 3 3 6 6 5 5 4 4 5 5 5 4 4 4 4 4 4 3 3 3 3
1 0 0 1 1 1 2 2 2 1 1 1 1 2 -0 2 0 1 0 1 0 3 3 2 2 3 3 2 2 2 1 2 3 3 5 5 3 2 3 4 4 5 5 5 5 5 4 4 4 4 3 3 2 2
0 0 0 1 1 1 1 1 -1 -1 -2 -1 -1 -0 -1 0 -0 -2 -1 0 0 2 1 2 1 1 2 2 1 1 1 1 3 4 4 3 2 2 3 4 4 4 4 4 3 3 3 3 3 2 2 2 1 1
0 0 0 0 0 0 0 0 -1 -1 -0 -1 0 0 1 1 3 1 1 2 1 1 1 1 0 1 -1 -0 0 1 1 3 4 3 3 3 3 4 4 4 3 3 3 3 3 2 2 2 1 1 1 1 1 1
-0 0 0 0 0 0 -1 -1 -1 -1 -1 -1 -1 -0 0 2 2 1 1 -0 1 1 1 1 -1 -2 -1 -1 1 2 1 2 2 3 3 3 3 3 3 3 2 2 2 2 2 1 1 0 0 0 -0 -0 -0 -0
0 0 0 -0 0 0 -1 -2 -2 -0 -0 -3 -3 -3 -0 1 1 1 1 0 1 1 -0 -1 0 -0 1 2 3 3 3 3 3 4 4 3 3 2 2 1 1 0 0 0 0 0 1 0 0 0 0 -0 -0 -0
1 0 0 0 0 -0 -2 -3 -4 -1 -0 -1 -3 -2 -0 0 0 1 0 -0 -1 -0 -1 -1 0 3 3 4 4 3 3 3 3 3 3 3 3 2 2 1 1 1 0 0 0 0 0 0 0 0 0 -0 -0 -0
0 0 -1 -0 -0 -2 -1 -2 -2 -2 -2 -2 -3 -2 -1 -3 -2 -2 -1 -0 -1 -0 0 2 3 4 4 4 4 3 3 3 3 3 2 2 2 1 1 1 1 0 0 0 0 0 -0 -0 -1 -1 -1 -1 -1 -1
0 -0 -1 -1 -1 -2 -2 -2 -2 -3 -3 -3 -3 -2 -2 -2 -2 -3 -2 -2 -2 0 0 2 3 3 3 3 3 3 2 1 1 1 1 1 1 1 1 0 -1 -1 -1 -2 -2 -2 -2 -2 -2 -2 -2 -3 -3 -3
-1 -0 -1 -2 -2 -2 -2 -4 -2 -3 -2 -3 -3 -2 -2 -3 -5 -6 -4 -2 -1 -0 1 2 2 1 1 1 1 0 -0 -1 0 1 1 1 1 0 -1 -1 -1 -2 -2 -2 -2 -2 -3 -3 -3 -3 -4 -4 -4 -4
-1 -1 -1 -1 -1 -2 -4 -4 -3 -4 -4 -3 -3 -2 -3 -4 -6 -5 -3 -2 -1 -0 -1 -1 -1 -1 -0 -2 -2 0 1 -0 -1 -0 -0 -1 -1 -2 -2 -2 -2 -2 -3 -3 -4 -4 -4 -4 -4 -4 -5 -5 -6 -5
-1 -2 -2 -3 -4 -4 -3 -4 -3 -3 -3 -4 -3 -3 -6 -7 -4 -4 -3 -2 -2 -1 -0 -1 -1 -1 -1 -0 0 -0 -1 -2 -2 -2 -2 -3 -3 -3 -3 -4 -4 -4 -5 -5 -5 -5 -5 -6 -6 -6 -6 -6 -6 -6
-1 -3 -2 -3 -5 -3 -3 -4 -4 -4 -3 -4 -4 -9 -8 -5 -5 -3 -2 -2 -2 -2 -1 -1 -1 -1 -1 -2 -2 -2 -2 -4 -5 -5 -4 -4 -5 -5 -5 -6 -6 -5 -5 -7 -7 -7 -7 -7 -7 -7 -7 -7 -6 -6
-4 -4 -5 -5 -4 -4 -4 -5 -4 -3 -4 -4 -6 -8 -6 -5 -4 -2 -2 -3 -3 -4 -4 -4 -5 -4 -3 -4 -5 -5 -6 -6 -7 -6 -6 -6 -6 -7 -7 -7 -7 -7 -8 -8 -8 -8 -8 -8 -7 -7 -7 -7 -7 -7
-4 -5 -5 -5 -5 -5 -3 -4 -3 -3 -3 -5 -5 -6 -5 -3 -1 -3 -4 -6 -6 -6 -6 -7 -6 -6 -7 -7 -7 -7 -7 -7 -7 -6 -6 -6 -6 -7 -7 -8 -9 -9 -8 -9 -8 -8 -8 -8 -7 -7 -7 -6 -6 -7
-5 -5 -4 -6 -7 -7 -5 -4 -4 -3 -4 -4 -3 -2 -4 -4 -7 -7 -7 -8 -7 -7 -7 -7 -8 -7 -8 -8 -8 -8 -8 -9 -9 -9 -9 -8 -7 -8 -9 -10 -9 -9 -9 -9 -8 -8 -7 -7 -6 -7 -7 -7 -8 -8
-6 -7 -5 -6 -5 -3 -4 -5 -5 -7 -7 -6 -6 -5 -5 -7 -10 -9 -9 -9 -9 -10 -10 -10 -10 -10 -10 -11 -10 -10 -9 -9 -10 -10 -10 -10 -10 -10 -10 -10 -10 -9 -9 -8 -8 -7 -7 -7 -8 -8 -8 -8 -8 -9
-8 -8 -7 -7 -6 -6 -8 -12 -12 -10 -10 -9 -11 -7 -5 -8 -10 -10 -9 -9 -9 -9 -9 -10 -10 -10 -10 -11 -12 -12 -11 -10 -10 -11 -11 -11 -11 -11 -10 -10 -9 -8 -7 -8 -8 -8 -9 -9 -9 -9 -9 -9 -9 -9
-6 -6 -7 -9 -7 -9 -11 -10 -10 -8 -10 -9 -8 -10 -9 -7 -7 -8 -9 -10 -10 -10 -10 -11 -12 -11 -11 -12 -11 -11 -12 -11 -11 -11 -11 -11 -10 -10 -9 -8 -7 -8 -8 -8 -8 -8 -8 -9 -9 -9 -9 -8 -8 -8
-9 -9 -9 -8 -8 -7 -9 -10 -9 -9 -9 -8 -8 -9 -9 -7 -7 -8 -10 -10 -11 -12 -12 -12 -12 -10 -10 -10 -11 -11 -11 -11 -11 -11 -11 -11 -9 -9 -8 -8 -8 -8 -8 -7 -7 -8 -8 -8 -9 -9 -8 -8 -8 -9

GFSWCAN_925_temp_177.txt.gz
Temp
4 6 8 9 10 10 9 9 9 10 9 9 9 9 9 9 9 9 9 10 9 8 9 11 11 10 10 10 10 9 10 9 8 9 9 10 10 11 11 10 9 9 7 8 8 9 9 11 11 12 10 10 10 9
7 7 9 8 9 10 9 9 9 9 9 9 9 9 9 9 9 9 9 9 9 8 9 10 10 10 10 10 9 9 10 9 9 8 8 8 9 8 9 10 11 11 10 10 10 10 11 10 11 11 9 9 8 8
9 7 9 8 8 9 9 9 9 9 8 9 9 8 8 8 8 8 9 9 9 7 8 8 8 9 10 10 10 10 8 9 8 8 7 8 9 7 8 8 11 11 10 10 11 12 11 12 9 8 8 7 7 7
7 8 8 8 8 9 8 8 8 8 8 8 8 8 8 8 8 8 8 9 9 8 8 8 7 7 7 8 9 9 9 9 8 8 8 8 7 8 7 8 8 9 10 9 8 9 10 9 7 7 7 7 7 7
8 8 8 8 8 8 8 7 7 7 7 8 8 8 8 8 8 8 7 8 9 9 8 7 7 5 6 7 7 8 9 7 7 7 7 7 6 7 6 6 6 8 10 9 10 9 8 8 6 7 6 6 6 6
4 8 8 7 7 7 5 5 5 6 7 8 8 8 8 8 7 7 6 7 7 8 7 6 6 5 5 6 6 6 7 6 6 7 7 7 7 7 2 6 7 8 9 9 8 8 8 7 6 6 6 6 6 5
1 2 4 5 5 5 5 5 5 6 6 7 7 7 7 7 7 7 6 5 6 7 5 5 5 3 4 5 4 4 5 5 5 6 6 6 6 7 6 7 9 8 7 8 7 7 7 7 6 5 6 5 6 5
0 1 3 3 3 4 4 4 5 5 6 7 6 7 6 6 5 5 5 5 6 6 5 5 5 3 4 4 4 4 5 5 5 5 5 5 5 5 6 6 7 6 6 6 5 6 6 6 5 5 5 5 4 3
1 1 1 2 2 2 2 3 3 4 5 6 6 6 5 4 2 3 3 5 6 5 4 4 4 4 3 3 3 3 4 4 3 4 4 5 4 4 6 5 6 6 6 6 5 5 5 4 4 4 4 4 3 2
1 1 1 1 1 2 2 1 2 3 2 2 3 2 1 1 2 3 3 3 2 1 2 4 3 2 3 3 3 3 2 3 1 3 3 3 4 5 5 5 4 4 4 4 4 4 3 3 3 3 3 2 2 2
1 0 1 1 1 2 2 3 3 3 4 4 1 1 0 1 0 1 2 3 2 2 2 2 2 2 2 3 3 3 2 1 -0 2 2 1 1 3 4 4 3 3 4 3 4 4 3 3 2 2 2 2 3 3
1 1 1 1 1 3 3 3 3 3 3 3 2 1 1 1 1 1 -1 0 1 2 1 1 1 2 1 2 3 1 1 -1 0 1 -1 -0 2 3 2 3 2 3 4 4 4 4 4 3 3 2 2 2 2 2
1 1 2 2 2 1 2 2 3 3 3 3 1 -1 -0 -2 -0 1 -2 -2 -1 1 0 1 1 1 1 2 1 0 -1 -0 1 -2 1 1 2 2 0 1 1 3 4 3 2 3 3 3 3 3 2 3 2 2
1 1 1 2 2 3 2 2 2 3 3 0 -1 -1 -1 -3 -1 0 1 1 0 0 1 1 0 1 1 1 0 -1 -0 -1 -3 -3 -1 -2 0 0 -1 -1 0 0 0 1 1 2 2 2 2 2 2 2 2 1
1 1 1 1 2 2 2 1 0 2 1 -2 -2 -1 -4 -1 -3 -3 -3 -1 -2 0 0 -0 -1 1 -1 -2 -0 -1 -3 -4 -0 -1 -1 -3 -1 -3 -3 -0 0 1 0 0 2 1 1 1 0 1 1 1 1 0
0 1 0 1 1 2 1 1 0 -0 -2 -2 -4 -4 -3 -2 -4 -4 -4 -3 -2 -1 -0 -1 -2 -2 -3 -2 -1 -4 -3 -3 -2 -3 -3 -4 -2 -1 -1 -1 0 1 1 1 1 1 0 -0 -0 -0 -0 -1 -1 -1
1 0 0 0 0 0 0 1 -1 -1 -1 -1 -3 -3 -3 -3 -3 -4 -2 -1 -1 -1 -3 -3 -5 -3 -4 -5 -3 -3 -4 -2 -3 -3 -3 -0 -0 -1 -1 -0 1 1 0 1 1 0 -0 -0 -1 -2 -2 -2 -1 -2
0 0 0 -0 1 1 0 -2 -3 -3 -2 -3 -2 -4 -1 -1 -1 -2 -3 -3 -1 -2 -3 -5 -6 -6 -5 -5 -5 -3 -4 -5 -4 -2 -1 -2 -1 -0 0 -1 0 1 0 0 0 -0 -1 -2 -3 -2 -2 -2 -2 -2
1 1 -0 0 1 -0 -3 -2 -3 -3 -5 -5 -5 -5 -3 -1 -1 -2 -2 -2 -1 -2 -4 -8 -7 -7 -4 -4 -3 -4 -6 -4 -1 -1 -1 0 1 0 0 1 0 -0 -0 -0 -1 -1 -1 -2 -2 -2 -2 -2 -3 -2
1 1 0 0 0 -1 -4 -3 -3 -1 -1 -4 -6 -4 -3 -3 -2 -2 -2 -2 -2 -5 -6 -6 -4 -2 -2 -2 -2 -2 -1 -2 -2 -2 -2 -2 1 0 0 0 -1 -0 -1 -1 -2 -2 -2 -3 -2 -2 -3 -3 -3 -3
0 -0 -0 0 -0 -1 -9 -4 -4 -3 -3 -5 -5 -5 -5 -5 -3 -2 -2 -2 -3 -7 -6 -3 -2 -2 -0 0 1 1 0 -1 -2 -3 -1 -1 -0 -0 -1 -0 -0 -1 -2 -3 -3 -3 -3 -4 -4 -4 -4 -4 -5 -5
-1 -0 -1 -0 -3 -6 -7 -3 -3 -4 -5 -4 -7 -5 -6 -7 -4 -4 -3 -3 -2 -4 -3 -2 -2 -2 -1 -1 -0 1 1 0 -0 -1 -1 -1 -4 -4 -3 -1 -2 -4 -4 -4 -4 -5 -4 -5 -5 -5 -5 -5 -6 -6
-0 -0 -2 -3 -7 -7 -8 -5 -8 -6 -4 -8 -5 -4 -6 -8 -6 -7 -5 -7 -6 -4 -1 -1 -1 -0 -1 0 -0 -0 -1 -1 -3 -3 -2 -2 -2 -2 -3 -3 -3 -4 -5 -5 -5 -5 -6 -5 -6 -6 -6 -7 -7 -7
0 -1 -6 -4 -10 -6 -9 -9 -9 -9 -4 -4 -6 -10 -10 -10 -10 -8 -9 -9 -6 -5 -4 -4 -2 -6 -4 -4 -7 -3 -2 -2 -3 -4 -4 -4 -6 -5 -5 -5 -5 -5 -6 -6 -6 -7 -7 -7 -7 -8 -8 -8 -8 -8
-4 -5 -6 -7 -9 -7 -8 -7 -8 -8 -10 -10 -9 -11 -12 -12 -10 -10 -10 -8 -7 -7 -6 -7 -6 -7 -7 -8 -5 -4 -4 -5 -6 -8 -5 -5 -6 -6 -7 -7 -7 -7 -7 -7 -7 -8 -8 -8 -8 -8 -8 -8 -8 -8
-4 -5 -6 -8 -9 -6 -7 -7 -5 -7 -10 -10 -10 -13 -15 -12 -9 -8 -9 -8 -9 -10 -10 -10 -10 -9 -8 -6 -7 -7 -7 -7 -7 -7 -6 -6 -7 -9 -10 -10 -9 -8 -8 -9 -9 -9 -9 -9 -9 -9 -9 -8 -7 -7
-8 -7 -8 -7 -7 -5 -5 -5 -6 -7 -5 -6 -9 -9 -7 -6 -10 -7 -7 -9 -11 -8 -9 -8 -7 -8 -9 -8 -8 -8 -7 -8 -9 -8 -7 -6 -6 -7 -8 -9 -9 -8 -9 -9 -9 -9 -9 -9 -9 -8 -8 -8 -8 -8
-9 -9 -6 -8 -8 -7 -7 -8 -8 -6 -4 -5 -6 -7 -6 -6 -5 -9 -11 -9 -9 -8 -8 -8 -8 -8 -8 -8 -8 -9 -8 -9 -7 -7 -6 -7 -7 -8 -8 -8 -9 -10 -10 -9 -9 -9 -9 -9 -8 -7 -8 -8 -9 -8
-9 -9 -8 -10 -10 -9 -7 -5 -5 -6 -5 -5 -4 -5 -7 -9 -12 -11 -10 -10 -9 -8 -9 -9 -9 -8 -9 -9 -9 -9 -9 -10 -11 -15 -14 -12 -12 -10 -10 -10 -10 -10 -9 -9 -9 -9 -8 -7 -7 -8 -9 -9 -9 -8
-9 -9 -8 -9 -8 -7 -7 -8 -8 -10 -9 -8 -8 -9 -10 -12 -10 -10 -10 -10 -10 -10 -10 -11 -11 -11 -12 -12 -13 -11 -9 -11 -11 -11 -15 -14 -13 -12 -12 -11 -11 -9 -9 -9 -9 -8 -8 -8 -8 -8 -8 -8 -8 -8
-11 -8 -8 -9 -5 -8 -11 -13 -12 -11 -13 -15 -18 -13 -12 -14 -10 -10 -10 -10 -10 -10 -10 -12 -11 -11 -12 -13 -14 -15 -14 -12 -11 -12 -12 -13 -12 -12 -11 -10 -9 -9 -9 -8 -8 -8 -8 -8 -9 -9 -9 -9 -9 -9
-9 -11 -11 -8 -10 -14 -17 -16 -17 -16 -18 -16 -15 -18 -15 -13 -11 -11 -11 -10 -10 -11 -11 -12 -12 -13 -12 -12 -12 -13 -13 -13 -13 -13 -12 -11 -11 -11 -10 -9 -9 -8 -8 -9 -9 -8 -8 -8 -9 -9 -10 -10 -10 -10
-15 -15 -16 -16 -14 -14 -16 -16 -17 -15 -17 -16 -15 -16 -15 -11 -10 -11 -11 -11 -12 -12 -12 -13 -12 -12 -12 -12 -13 -12 -12 -13 -12 -12 -12 -12 -10 -9 -9 -8 -9 -9 -9 -9 -8 -8 -8 -9 -9 -10 -10 -10 -10 -10

GFSWCAN_925_temp_183.txt.gz
Temp
2 2 2 3 3 3 3 3 3 3 4 4 6 7 9 9 9 8 8 9 10 7 8 9 10 9 9 9 10 8 9 8 8 9 9 9 8 9 10 10 8 9 7 7 7 9 9 10 11 11 10 8 8 8
2 2 2 2 2 3 3 3 3 3 3 4 5 6 8 9 9 8 8 9 9 7 8 8 10 10 11 11 9 7 10 8 9 8 7 7 8 7 8 10 8 10 10 10 10 10 9 9 10 9 8 8 8 7
1 1 2 2 2 2 2 3 3 3 3 3 4 7 8 9 9 8 8 8 7 6 7 7 7 8 9 10 10 9 8 9 8 8 7 8 10 7 8 7 9 9 8 10 10 9 10 9 8 8 8 8 7 6
1 1 2 2 2 2 2 2 2 2 3 3 4 5 7 8 8 8 7 8 9 6 7 7 6 7 7 9 9 10 9 8 7 8 8 8 9 7 7 8 8 9 9 9 9 9 8 8 8 8 7 6 6 5
1 1 2 2 2 2 1 1 2 2 3 3 4 4 7 8 8 8 7 9 10 9 7 6 5 5 6 7 8 9 9 7 7 7 7 8 7 7 5 6 6 8 10 9 8 8 8 8 8 6 5 5 5 5
1 1 1 2 2 0 1 6 7 5 3 3 4 5 7 8 8 7 7 7 9 9 7 7 5 4 5 6 7 6 7 6 6 7 7 7 7 7 5 6 7 8 8 7 8 7 7 7 6 5 5 5 5 4
1 1 1 2 1 0 5 7 7 7 4 4 4 6 8 8 8 8 8 7 9 9 6 5 5 3 4 4 4 5 5 5 6 6 6 6 6 6 5 4 8 8 7 7 7 7 7 6 7 5 5 5 6 5
1 1 1 2 1 0 1 6 7 6 4 4 6 8 8 8 7 6 6 7 9 7 6 6 4 4 3 4 4 4 5 5 5 5 5 6 5 5 6 6 6 6 6 7 6 5 5 5 4 4 4 3 3 2
1 0 1 2 2 0 0 4 6 6 7 7 8 8 7 5 4 3 5 6 8 6 5 4 5 5 2 3 3 3 3 5 2 4 5 5 5 6 6 5 5 6 6 5 3 3 4 4 4 3 3 3 3 2
1 0 1 2 2 1 0 1 6 7 7 6 5 2 1 2 4 5 5 3 2 1 2 4 2 3 3 3 3 3 3 4 4 3 3 4 4 4 4 3 3 3 3 3 4 4 4 4 2 3 3 1 1 1
1 1 1 2 2 1 1 0 0 2 4 2 1 0 0 3 3 1 2 4 3 3 3 2 2 2 2 4 3 3 3 2 3 2 3 2 1 3 2 2 1 1 2 2 2 2 1 1 1 1 1 1 1 1
1 1 1 2 2 1 1 -0 -0 0 -0 -0 0 -0 -0 0 1 1 2 1 3 3 1 2 2 2 1 2 2 2 2 1 2 1 1 0 2 2 1 1 1 1 1 1 2 1 1 2 1 1 0 0 0 1
1 1 1 1 1 1 1 0 -1 -1 -0 0 0 -0 0 -1 1 2 1 0 1 1 0 1 1 1 1 1 1 1 1 1 1 -1 1 0 1 1 -1 -0 -0 0 1 1 1 2 1 1 1 1 0 1 -0 -1
1 1 1 2 1 1 1 2 2 1 1 -1 0 -0 -0 1 0 0 0 -0 -0 1 2 2 1 2 1 1 1 1 0 0 -3 -3 -1 -2 -1 -0 -1 -1 -1 1 1 1 1 0 0 -0 -1 -0 0 0 -1 -2
0 0 1 1 1 1 1 1 2 2 -1 -2 -1 -1 -0 -1 -2 -2 -1 0 -0 0 1 1 0 1 0 -0 0 -0 -0 -1 -0 -1 -0 -2 -1 -3 -3 -1 -1 -1 -1 -1 0 -0 -0 -0 -1 -1 0 -1 -1 -2
0 1 0 0 0 1 2 2 2 1 -2 -2 -2 -1 -1 -0 -1 -0 0 0 -1 -1 -1 -0 -1 -0 -1 -1 -1 -1 -0 -1 -0 -2 -2 -4 -3 -2 -1 -1 -1 -1 -1 -1 -1 -1 -1 -1 -1 -1 -2 -2 -2 -3
0 0 -0 -0 0 1 1 1 1 -2 -2 -2 -2 -2 -2 -2 -2 -2 -0 -1 -1 0 -1 -2 -1 -1 -2 -2 -2 -2 -1 -0 -1 -3 -4 -2 -1 -0 -1 -1 -1 -1 -1 -1 -1 -1 -1 -1 -2 -3 -4 -3 -3 -3
0 -0 -0 0 1 1 -0 -2 -4 -3 -2 -3 -2 -3 -1 -1 -1 -1 -2 -2 0 -1 -2 -2 -3 -3 -2 -2 -3 -2 -3 -4 -4 -1 -1 -1 -1 -1 -1 -2 -1 -1 -2 -2 -2 -2 -3 -3 -4 -4 -4 -4 -4 -4
0 -1 -0 1 1 -1 -5 -4 -4 -4 -4 -3 -3 -3 -2 -2 -2 -3 -3 -3 -3 -3 -4 -5 -3 -4 -2 -3 -3 -4 -5 -4 -2 -2 -2 -2 -1 -1 -1 -1 -2 -2 -2 -3 -3 -4 -3 -3 -4 -4 -4 -5 -5 -5
-0 0 0 0 1 -4 -8 -6 -2 -4 -5 -3 -4 -3 -3 -3 -3 -3 -2 -2 -2 -5 -3 -3 -2 -1 -2 -2 -3 -2 -2 -3 -3 -2 -2 -2 -1 -1 -2 -2 -3 -3 -3 -3 -4 -4 -4 -5 -5 -5 -5 -5 -5 -6
-0 -0 0 1 -1 -3 -3 -5 -4 -4 -4 -6 -6 -5 -6 -6 -4 -4 -3 -2 -5 -8 -5 -3 -2 -2 -2 -2 -1 -1 -2 -3 -3 -3 -2 -3 -2 -2 -2 -3 -3 -4 -5 -6 -6 -6 -6 -6 -6 -7 -7 -7 -7 -7
-1 -0 0 -1 -7 -8 -6 -6 -5 -4 -5 -6 -6 -5 -6 -9 -7 -8 -7 -5 -8 -5 -4 -2 -2 -2 -2 -2 -2 -2 -1 -2 -2 -3 -3 -3 -5 -6 -5 -4 -5 -6 -6 -6 -6 -7 -7 -7 -7 -7 -8 -8 -8 -8
-0 0 -3 -4 -8 -10 -7 -7 -8 -6 -5 -8 -5 -5 -6 -8 -8 -8 -9 -10 -6 -5 -5 -4 -3 -2 -3 -3 -3 -4 -3 -3 -5 -5 -4 -5 -5 -5 -5 -5 -6 -6 -7 -7 -7 -7 -8 -7 -8 -8 -8 -9 -9 -9
-0 -5 -8 -7 -13 -10 -13 -11 -11 -8 -5 -5 -7 -9 -9 -7 -12 -10 -9 -9 -6 -6 -7 -7 -7 -5 -5 -6 -8 -7 -6 -5 -6 -5 -6 -6 -7 -6 -6 -7 -7 -7 -7 -7 -8 -9 -9 -9 -9 -9 -10 -10 -10 -10
-4 -7 -9 -6 -11 -10 -13 -13 -14 -11 -10 -14 -9 -12 -13 -14 -13 -10 -10 -11 -8 -9 -9 -9 -7 -7 -7 -7 -8 -8 -8 -7 -8 -10 -6 -7 -8 -7 -8 -8 -8 -8 -8 -9 -10 -10 -10 -10 -10 -10 -10 -10 -10 -9
-7 -5 -8 -10 -10 -8 -11 -10 -11 -10 -12 -11 -13 -14 -17 -14 -9 -12 -11 -10 -10 -11 -11 -11 -10 -10 -10 -9 -9 -9 -9 -9 -8 -9 -7 -8 -9 -10 -11 -12 -12 -9 -9 -10 -11 -10 -10 -10 -10 -10 -10 -10 -9 -8
-8 -8 -10 -8 -8 -8 -8 -8 -7 -9 -8 -7 -9 -11 -13 -10 -11 -10 -9 -9 -10 -10 -11 -10 -10 -10 -11 -10 -9 -9 -9 -9 -10 -9 -8 -8 -9 -9 -10 -11 -11 -11 -10 -11 -11 -11 -11 -10 -10 -10 -10 -9 -9 -9
-9 -9 -7 -9 -9 -11 -10 -10 -8 -7 -6 -6 -7 -9 -8 -6 -5 -8 -9 -10 -10 -10 -10 -10 -10 -10 -10 -10 -10 -11 -9 -10 -8 -8 -8 -8 -9 -9 -10 -10 -10 -10 -11 -10 -10 -10 -10 -10 -10 -9 -9 -8 -9 -9
-9 -10 -9 -11 -13 -13 -12 -10 -9 -7 -6 -6 -5 -6 -6 -9 -11 -11 -11 -11 -10 -10 -10 -10 -10 -10 -9 -9 -10 -10 -11 -11 -12 -16 -16 -15 -13 -11 -11 -11 -11 -10 -10 -9 -9 -10 -10 -9 -8 -7 -8 -9 -9 -9
-11 -11 -11 -14 -10 -8 -11 -11 -9 -9 -9 -9 -8 -9 -10 -11 -11 -11 -11 -11 -11 -12 -12 -12 -12 -12 -13 -14 -14 -12 -11 -12 -12 -13 -17 -18 -15 -13 -12 -11 -11 -10 -9 -10 -10 -9 -9 -9 -9 -8 -9 -9 -9 -9
-12 -12 -11 -11 -9 -11 -13 -13 -12 -11 -13 -14 -15 -12 -12 -14 -11 -11 -11 -11 -12 -12 -11 -12 -11 -13 -13 -14 -15 -15 -15 -13 -13 -13 -13 -14 -13 -12 -11 -10 -10 -9 -9 -9 -9 -9 -9 -9 -9 -10 -10 -10 -10 -10
-11 -13 -12 -8 -10 -15 -16 -14 -14 -15 -14 -14 -13 -19 -15 -14 -14 -13 -12 -12 -11 -12 -12 -13 -14 -14 -13 -13 -13 -14 -14 -13 -13 -13 -12 -12 -12 -11 -10 -9 -9 -9 -9 -9 -10 -9 -9 -9 -10 -10 -10 -10 -10 -10
-18 -18 -19 -17 -15 -14 -16 -16 -16 -16 -16 -15 -14 -15 -14 -11 -12 -13 -13 -12 -13 -13 -14 -14 -13 -12 -12 -12 -13 -13 -13 -13 -13 -13 -13 -12 -11 -10 -9 -9 -9 -10 -10 -10 -9 -9 -10 -10 -10 -10 -10 -10 -10 -10